Regional Weather Roundup
Issued by NWS

Home | Current Version | Previous Version | Text Only | Print | Product List | Glossary Off
Versions: 1 2 3 4 5 6 7 8 9 10 11 12 13 14 15 16 17 18 19 20 21 22 23 24 25 26 27 28 29 30 31 32 33 34 35 36 37 38 39 40 41 42 43 44 45 46 47 48 49 50

868
ASUS43 KMKX 292011
RWRWI

WISCONSIN REGIONAL WEATHER ROUNDUP
NATIONAL WEATHER SERVICE MILWAUKEE/SULLIVAN WI
300 PM CDT FRI JUL 29 2016

NOTE: "FAIR" INDICATES FEW OR NO CLOUDS BELOW 12,000 FEET WITH NO
SIGNIFICANT WEATHER AND/OR OBSTRUCTIONS TO VISIBILITY.

WIZ001-002-006>008-014>016-023>028-292100-
NORTHWEST WISCONSIN

CITY           SKY/WX    TMP DP  RH WIND       PRES   REMARKS
SUPERIOR ARPT  SUNNY     72  55  55 NE9       30.09F
ASHLAND        SUNNY     73  57  57 NE12      30.09F
HAYWARD        MOSUNNY   73  54  51 N6        30.07F
SIREN          NOT AVBL
CUMBERLAND     SUNNY     72  50  46 SE3       30.08S
RICE LAKE      SUNNY     75  53  47 CALM      30.07F
CHETEK         SUNNY     75  54  46 CALM      30.06F
LADYSMITH      MOSUNNY   78  55  44 CALM      30.07F
EAU CLAIRE     MOSUNNY   76  56  49 VRB3      30.03F
MENOMONIE      SUNNY     80  48  32 N7        30.05S
NEW RICHMOND   SUNNY     75  49  39 E6        30.06F
OSCEOLA        SUNNY     75  51  42 N6        30.09F
$$

WIZ003>005-009-010-017-018-292100-
NORTH CENTRAL WISCONSIN

CITY           SKY/WX    TMP DP  RH WIND       PRES   REMARKS
MANITOWISH WTR SUNNY     73  53  49 SE5       30.08F
ARBOR VITAE    MOSUNNY   77  56  48 SE6       30.08F
WOODRUFF       MOSUNNY   77  56  48 SE6       30.08F
RHINELANDER    PTSUNNY   76  54  46 NE7       30.08F
EAGLE RIVER    MOSUNNY   74  51  44 CALM      30.07F
LAND O LAKES   PTSUNNY   75  50  41 CALM      30.09F
PHILLIPS       PTSUNNY   74  56  52 N3        30.06F
TOMAHAWK       MOSUNNY   76  57  51 E6        30.06F
MEDFORD        CLOUDY    72  60  66 E6        30.06S
MERRILL        CLOUDY    74  58  57 SE6       30.06S
$$

WIZ029-030-035-036-043>047-292100-
CENTRAL WISCONSIN

CITY           SKY/WX    TMP DP  RH WIND       PRES   REMARKS
WAUSAU         CLOUDY    73  60  63 E9        30.03F
MOSINEE        PTSUNNY   73  63  68 E10       30.05F
MARSHFIELD     CLOUDY    74  61  63 NE7       30.03F
STEVENS POINT  CLOUDY    70  61  73 E7        30.04F
WAUPACA        CLOUDY    73  65  74 E3        30.03F
WAUTOMA        CLOUDY    70  65  84 NE6       30.02F
WISC RAPIDS    CLOUDY    74  61  63 E9        30.04F
CAMP DOUGLAS   CLOUDY    70  64  83 NE7       30.02F
$$

WIZ011>013-019>022-031-037>040-048>050-292100-
NORTHEAST WISCONSIN

CITY           SKY/WX    TMP DP  RH WIND       PRES   REMARKS
ANTIGO         CLOUDY    72  60  67 SE9       30.06F
SHAWANO        CLOUDY    78  62  56 E9        30.03F HX  80
OCONTO         MOSUNNY   75  64  67 E9G16     30.03F
STURGEON BAY   SUNNY     75  60  59 E8        30.04F
GREEN BAY      CLOUDY    75  66  73 NE12      30.02F
MANITOWOC      CLOUDY    72  62  71 NE10      30.01F
APPLETON       CLOUDY    72  59  64 NE10      30.01F
CLINTONVILLE   CLOUDY    73  59  60 NE8       30.03F
OSHKOSH        CLOUDY    73  63  70 NE9       30.00F
$$

WIZ032>034-041-042-053>061-292100-
SOUTHWEST WISCONSIN

CITY           SKY/WX    TMP DP  RH WIND       PRES   REMARKS
LA CROSSE      CLOUDY    76  64  66 NE3       30.00F
SPARTA         CLOUDY    73  64  73 E10G16    30.02S
VIROQUA        CLOUDY    71  64  80 E6        30.02F
BOSCOBEL       CLOUDY    67  64  90 NE3       30.00F
PRAIRIE DU CHI CLOUDY    66  62  87 CALM      29.99F
PLATTEVILLE    CLOUDY    70  68  94 N10       29.99S
$$

WIZ056-057-062-063-064-067-068-292100-
SOUTH CENTRAL WISCONSIN

CITY           SKY/WX    TMP DP  RH WIND       PRES   REMARKS
REEDSBURG      CLOUDY    69  65  89 NE6       30.00F
BARABOO/DELLS  CLOUDY    68  64  85 NE9       30.00F
LONE ROCK      CLOUDY    69  65  86 N6        30.00F
MINERAL POINT  CLOUDY    70  66  88 N8        30.00S
MADISON        CLOUDY    72  66  81 NE10      29.98S
MIDDLETON      CLOUDY    71  67  90 N9        29.99F
WATERTOWN      PTSUNNY   74  67  78 NE12      29.98S
MONROE         CLOUDY    72  66  83 N14       29.96S THUNDER
JANESVILLE     CLOUDY    75  66  73 NE8       29.94F
$$

WIZ051-052-058>065-066-070>072-292100-
SOUTHEAST WISCONSIN

CITY           SKY/WX    TMP DP  RH WIND       PRES   REMARKS
MILWAUKEE      CLOUDY    75  66  73 NE14      29.97F
WAUKESHA       CLOUDY    70  63  78 NE12G20   29.98F
MILWAUKEE/TIMM CLOUDY    72  63  73 NE12G21   29.98F
RACINE         CLOUDY    76  67  73 NE13      29.98S
BURLINGTON     CLOUDY    74  65  72 NE9       29.96S
KENOSHA        CLOUDY    75  65  70 E14       29.96R
FOND DU LAC    PTSUNNY   73  64  73 NE12      30.00F
SHEBOYGAN      PTSUNNY   73  64  73 NE15      30.00F
WEST BEND      CLOUDY    70  64  83 NE10      29.99F
JUNEAU         LGT RAIN  69  67  95 N6        30.01S
$$

LSZ147-162-292100-
LAKE SUPERIOR

STATION/POSITION TIME  TEMP    WIND        PRES    WAVE
                       AIR SEA DIR/SP/G            HT/PER
                 (UTC) (F)     (DEG/KT/KT) (MB)    (FT/S)
W MID LAKE BUOY  1950   63 62   20/  6/  6 1019.0F   0
DEVILS ISLAND    2000   64      20/  7/  8 1019.4F
PORT WING        1900   63      30/  9/ 10 1019.6R
SAXON HARBOR     1900   67      10/  7/  8 1019.3S
$$

LMZ867-665-643>646-292100-
LAKE MICHIGAN

STATION/POSITION TIME  TEMP    WIND        PRES    WAVE
                       AIR SEA DIR/SP/G            HT/PER
                 (UTC) (F)     (DEG/KT/KT) (MB)    (FT/S)
CHAMBERS ISLAND  1900   71      20/ 12/ 13 1017.6F
S GREEN BAY BUOY 1800   71 71   40/ 10/ 10 1016.9
N MID LAKE BUOY  1950   69 70   50/ 12/ 14 1017.1F   1/ 3
NORTHPORT PIER   1900   69      60/ 11/ 14 1017.9S
SISTER BAY       1821   79     130/  9/ 14   N/A
ALGOMA LAKESHORE 1913           80/ 15/ 18   N/A
KEWAUNEE LAKESHO 1900   71      30/  3/  8 1016.7F
SHEBOYGAN LAKESH 2000   64      20/ 13/ 14 1016.1F
PORT WASHINGTON  1940   70      50/ 11/ 13 1016.3F
ATWATER BUOY     1900   64 61   10/ 10/ 12 1017.0F
MILWAUKEE LAKESH 1910   68      20/ 11/ 12   N/A
S MID LAKE BUOY  1950   72 74   60/ 16/ 17 1012.9F   3/ 5
KENOSHA   LAKESH 2000   71      40/ 13/ 14 1013.9R
$$

TC  - TEMPERATURE IN CELSIUS
VSB - VISIBILITY IN STATUTE MILES
WCI - WIND CHILL INDEX
HX  - HEAT INDEX





USA.gov is the U.S. government's official web portal to all federal, state and local government web resources and services.